Theta_e
343 343 341 341 341 341 342 337 339 341 342 342 344 344 345 345 346 343 342 343 342 343 343 343 342 342 341 342 342 342 339 335 332 336 340 342 341 340 345 347 346 343 342
342 343 342 342 341 341 341 343 343 339 338 342 341 341 341 340 343 344 343 347 342 341 342 341 340 344 342 342 340 339 340 337 333 330 336 339 339 337 342 344 347 347 342
343 343 343 343 342 341 341 342 343 340 337 343 344 342 342 342 343 344 345 344 344 344 343 343 344 343 341 341 341 340 341 342 336 333 333 336 338 338 338 342 343 343 342
343 343 342 343 343 344 343 343 343 343 342 342 345 344 343 344 345 345 346 344 345 346 346 346 346 345 343 342 341 340 340 338 338 337 336 335 337 337 338 336 338 341 340
343 343 342 342 343 343 343 344 345 345 346 345 344 342 343 346 347 346 346 345 344 344 346 346 346 347 346 343 344 342 340 336 336 336 334 334 334 335 334 336 337 339 338
342 343 344 343 344 344 345 344 344 343 344 343 343 342 343 347 341 339 344 345 344 343 342 343 346 346 345 341 339 340 343 339 335 335 334 333 333 334 335 335 334 336 334
342 344 346 346 345 344 344 344 342 343 345 345 344 343 344 344 337 334 339 342 341 341 341 341 342 347 343 345 340 337 336 336 339 339 336 335 333 335 334 333 333 333 332
343 343 344 347 346 344 343 345 342 343 342 341 342 343 342 344 334 331 334 338 339 340 341 342 341 341 341 341 342 341 341 342 339 339 340 342 339 341 338 337 335 336 333
343 343 344 344 343 344 342 343 341 342 342 342 343 343 343 343 332 328 330 337 339 340 341 342 341 341 335 331 336 337 338 340 339 332 334 334 334 334 339 337 334 334 334
341 344 345 344 343 342 342 339 340 341 341 342 341 339 334 339 330 327 328 337 336 338 340 338 331 332 321 323 333 334 333 336 337 338 340 335 331 335 332 341 339 337 334
342 345 345 345 343 343 342 341 341 340 339 336 336 334 334 334 336 324 321 335 337 336 334 334 336 326 321 321 321 334 333 331 335 337 337 337 337 338 337 336 340 341 338
344 344 345 343 346 345 342 339 338 336 334 332 330 328 331 331 323 320 319 319 331 338 333 333 334 323 317 314 317 322 321 322 329 330 330 331 332 334 336 335 336 338 335
343 342 343 343 345 343 339 336 333 332 330 328 327 327 329 329 332 318 316 319 322 329 330 325 316 311 310 313 315 315 316 323 327 328 326 326 333 334 331 330 328 326 323
342 340 340 340 338 335 336 334 332 329 328 329 329 329 325 323 323 324 326 327 322 325 321 319 317 316 315 317 317 321 324 325 325 327 328 330 330 329 328 327 326 325 323
338 337 335 335 335 333 331 327 331 330 328 331 330 327 323 321 320 314 312 317 313 306 307 312 314 314 315 316 316 317 319 322 326 327 332 329 326 324 323 324 323 321 320
336 334 333 332 331 333 332 324 306 307 302 302 305 318 318 306 302 301 301 300 301 302 310 309 310 311 311 313 314 316 317 329 326 325 327 325 323 321 320 319 320 319 316
335 333 332 331 332 332 332 331 330 315 304 301 300 301 303 306 300 299 299 298 299 302 309 309 309 312 316 318 321 324 324 323 320 319 321 318 320 318 317 317 317 315 313
332 323 332 332 331 327 327 327 326 323 319 317 306 305 298 298 297 297 298 300 307 304 307 313 317 320 321 323 324 323 322 321 319 319 318 318 317 316 315 315 315 314 313
331 330 330 326 324 321 320 319 318 317 317 316 313 307 301 297 296 297 298 310 310 316 319 321 323 322 322 321 320 320 320 319 318 317 316 316 315 315 314 315 315 310 311
327 323 322 320 320 320 318 317 317 316 316 318 316 314 310 306 310 310 309 310 311 319 320 320 320 320 319 318 318 318 316 315 315 314 314 314 314 315 314 315 315 313 313
326 321 321 317 316 317 318 318 317 316 315 315 317 315 307 314 314 314 314 313 314 315 317 319 318 318 318 318 317 316 315 314 313 313 313 313 314 314 315 316 316 315 314
326 324 320 318 319 319 317 319 318 317 316 317 315 311 301 314 315 315 317 318 320 320 319 314 315 316 318 317 316 316 314 313 313 313 313 314 315 315 316 315 315 315 314
328 323 321 319 320 316 316 316 316 316 316 317 316 314 312 313 315 317 319 320 321 317 314 315 313 314 317 317 316 316 315 314 314 315 314 314 314 313 315 314 314 313 312
328 326 322 321 319 317 316 316 315 311 317 317 317 315 314 315 317 318 320 320 322 318 314 314 313 312 312 312 312 312 313 312 312 312 314 313 312 310 313 313 312 310 308
329 328 324 321 319 317 316 317 316 316 318 318 317 316 316 316 318 319 320 318 319 318 316 315 315 314 314 312 312 312 304 300 309 303 311 310 310 309 309 308 308 307 305
324 323 322 320 319 317 317 317 317 317 317 318 317 317 317 317 319 322 322 319 317 317 317 316 316 316 315 316 315 305 289 291 304 299 312 314 312 311 311 310 309 308 306
Wind_Speed
12 11 9 8 8 6 5 6 6 5 5 6 5 6 7 6 6 5 5 4 5 4 3 4 5 4 3 3 3 3 3 3 4 3 4 2 3 4 2 3 4 4 4
13 12 10 8 6 6 6 6 5 6 6 6 5 5 5 6 5 6 6 6 6 6 6 4 6 3 4 5 4 5 4 4 3 4 2 3 5 3 2 3 3 3 4
12 11 10 8 8 8 8 7 7 7 7 6 5 6 6 6 6 6 6 6 6 6 6 6 6 5 5 4 4 5 4 3 3 3 4 2 3 1 2 2 3 3 3
11 11 11 11 10 8 7 7 7 7 6 6 6 6 6 6 6 6 6 6 6 6 6 6 6 6 6 7 5 6 4 4 4 3 3 3 2 2 2 3 4 3 3
12 12 12 9 8 7 7 6 6 7 7 7 7 6 7 6 6 7 6 6 6 6 6 6 6 8 11 9 4 6 5 4 3 4 3 2 2 3 4 3 4 3 3
13 12 10 8 9 8 7 6 6 6 6 1 3 4 7 6 9 11 7 6 6 6 6 6 7 8 9 12 12 13 8 6 5 4 3 4 5 4 3 4 3 3 3
10 10 11 10 9 9 7 6 7 7 5 7 9 11 15 6 6 7 7 4 4 6 6 6 5 5 7 6 9 9 9 11 10 5 6 6 5 7 4 3 4 4 5
12 10 8 9 10 6 6 6 7 4 5 5 6 6 5 5 7 8 7 4 5 6 6 6 5 6 6 6 6 6 7 6 7 6 8 9 8 5 8 6 6 5 0
11 10 10 9 6 7 7 5 6 5 4 3 2 4 4 5 6 7 4 4 5 6 5 5 5 6 8 7 5 6 7 7 7 11 12 12 11 11 6 4 4 4 4
11 11 9 8 7 7 7 7 3 4 4 4 3 2 2 5 4 6 5 3 5 4 4 4 4 4 3 4 4 5 6 7 5 6 5 6 8 8 9 9 4 7 5
8 8 8 7 7 7 6 4 4 4 3 3 2 1 2 4 6 8 7 5 5 4 4 3 3 6 6 5 6 5 6 4 5 4 4 4 5 4 4 6 8 7 7
9 8 9 7 6 6 7 5 5 5 4 3 1 3 3 3 4 6 8 11 5 4 4 3 3 6 7 7 5 10 10 6 3 4 3 4 4 3 1 1 2 2 2
8 7 7 7 6 6 6 5 4 4 3 3 2 3 4 1 2 6 4 3 1 2 1 3 4 6 7 6 9 11 7 4 3 4 4 3 2 1 2 1 2 4 4
9 8 6 7 6 5 4 4 4 4 4 4 4 4 3 2 3 1 1 1 2 2 3 4 6 7 8 7 6 6 4 5 6 5 3 2 2 2 2 2 2 1 1
7 6 6 6 7 6 4 2 3 2 3 4 4 4 5 5 4 3 2 0 2 3 4 2 3 3 4 5 5 5 5 4 6 5 5 3 3 2 2 2 2 2 2
7 5 5 5 4 4 4 3 4 1 0 2 6 5 3 2 6 7 4 3 3 4 2 3 3 4 4 5 5 6 5 6 3 2 2 3 3 3 3 2 2 3 2
9 6 4 5 5 5 4 4 4 2 4 6 5 5 5 7 10 8 5 2 2 3 1 4 4 5 5 5 6 5 4 1 0 1 2 2 3 2 3 2 2 2 3
7 11 6 5 4 3 3 4 3 3 3 1 4 3 2 7 7 5 4 4 1 2 3 4 6 5 4 4 3 3 3 2 2 2 2 2 2 2 2 2 3 3 5
6 5 6 5 4 4 4 4 3 3 3 3 2 1 6 5 4 5 5 2 3 4 3 4 4 4 3 3 3 3 3 3 2 2 2 2 2 2 2 3 3 6 7
3 7 7 6 4 4 4 4 3 3 3 3 3 3 4 3 3 4 4 3 4 5 3 3 3 3 3 3 3 3 2 2 2 1 1 2 2 2 3 4 5 6 5
3 3 7 6 4 4 4 4 4 4 3 2 2 4 10 5 3 4 3 4 4 4 4 3 3 3 3 3 3 2 2 2 2 1 1 2 2 2 3 4 5 5 5
1 3 3 4 4 4 4 4 4 4 4 3 2 1 6 3 3 3 3 3 3 3 2 2 2 3 3 2 2 2 2 2 2 2 2 2 3 3 4 5 6 5 5
5 3 4 3 4 5 4 4 3 3 3 4 4 3 3 4 4 4 4 3 3 2 1 0 1 2 2 1 1 1 2 2 2 2 3 3 3 4 5 6 6 5 3
6 6 7 5 4 4 5 5 4 5 4 3 3 3 3 4 4 3 3 2 3 2 1 1 2 3 1 1 1 1 1 2 3 4 5 3 3 4 5 5 5 4 3
7 8 7 6 5 5 5 4 5 5 4 4 4 3 3 3 4 4 4 3 3 2 3 2 2 3 3 3 3 3 3 7 4 4 4 5 6 6 5 3 3 2 3
6 6 5 5 5 5 5 5 5 5 4 4 4 4 4 4 5 4 4 4 4 4 4 3 4 5 5 5 5 5 5 6 6 6 4 4 4 4 4 4 4 2 3
Wind_Direction
189 188 186 195 206 198 192 199 202 208 216 218 208 200 190 198 198 198 219 213 217 235 253 214 218 205 213 210 216 232 231 182 204 288 223 220 243 251 276 193 190 204 198
186 191 189 186 191 192 197 199 197 216 222 219 205 204 207 214 213 208 215 210 212 225 239 233 253 241 235 204 200 223 222 212 185 246 277 257 222 225 224 202 203 191 214
177 181 190 185 188 203 201 199 197 211 227 220 222 215 218 228 224 223 221 221 220 224 232 232 241 231 251 231 219 223 222 199 211 215 265 259 229 219 238 232 210 204 199
175 178 190 196 198 203 206 206 195 202 209 217 218 227 225 223 226 227 223 231 236 238 239 231 237 231 237 246 233 231 222 226 196 211 244 259 232 197 187 205 232 205 208
175 184 194 193 196 197 205 211 215 204 207 207 216 222 229 217 222 218 218 226 230 238 237 234 237 235 232 226 219 236 199 217 218 218 212 223 232 198 203 206 219 179 210
178 190 187 183 191 199 208 203 208 239 245 265 335 292 243 220 223 222 218 213 225 242 253 250 235 238 245 243 231 235 209 197 205 206 212 209 222 214 204 205 172 190 247
189 183 186 183 198 200 199 196 211 220 200 149 189 219 251 246 245 244 216 226 241 248 254 264 276 258 249 253 258 250 239 228 223 195 219 219 207 207 200 213 208 191 210
187 185 186 181 191 181 182 184 233 212 207 203 191 203 225 252 250 236 226 226 247 256 251 258 262 279 276 266 265 266 257 244 231 214 218 238 224 203 193 193 199 209 283
179 179 184 182 182 174 183 188 198 175 168 188 179 200 219 264 255 244 203 241 248 254 257 255 259 277 287 299 273 272 274 266 252 234 230 235 233 236 200 151 204 190 241
178 186 170 172 171 176 183 186 156 157 173 178 225 233 263 277 291 270 214 225 252 253 258 257 246 265 327 317 268 274 275 273 294 293 286 269 246 247 202 215 203 219 214
156 150 159 166 169 174 153 155 160 145 143 175 204 293 280 257 279 280 232 216 221 226 241 261 250 252 264 256 248 263 258 313 308 307 298 286 290 264 227 211 220 221 221
142 153 164 165 159 153 151 154 155 156 166 186 172 303 301 324 335 294 264 216 245 219 206 228 247 263 264 275 271 264 273 285 271 284 284 280 281 284 9 16 332 291 10
141 153 147 145 151 151 144 153 133 146 159 198 198 229 246 259 325 24 66 113 337 270 243 222 247 270 275 280 265 272 261 241 248 247 252 246 231 235 157 155 87 99 86
152 141 145 146 141 142 136 145 152 166 186 206 212 233 222 245 269 303 52 47 26 345 339 322 307 287 267 263 298 286 261 249 234 231 227 226 166 182 208 191 211 178 158
125 142 143 143 148 145 105 133 197 204 183 206 226 190 182 222 232 167 161 202 10 42 327 295 296 307 306 300 293 275 275 255 236 224 208 175 203 206 234 210 211 185 198
138 141 152 138 134 134 145 159 52 160 212 255 256 184 167 56 133 131 137 104 64 30 303 282 285 275 270 272 274 279 272 263 220 189 186 187 219 221 225 210 203 193 153
144 142 127 137 154 157 172 184 224 179 97 75 64 128 119 166 163 165 170 134 103 120 258 283 272 270 269 268 270 260 260 235 141 211 248 237 231 223 204 189 168 141 123
132 140 157 163 169 164 189 202 189 189 216 209 88 83 102 164 158 165 160 143 160 202 235 252 267 263 264 270 292 298 300 274 268 263 249 236 209 201 185 172 152 141 135
142 157 154 152 167 168 153 154 165 175 196 206 154 137 132 129 161 188 194 243 247 262 240 260 277 283 284 287 282 284 284 280 274 254 232 211 194 170 155 141 133 136 129
249 164 142 142 153 142 146 162 184 207 200 211 209 196 148 147 209 210 216 224 238 254 268 259 274 276 281 285 287 283 282 278 257 234 222 195 172 158 146 135 136 138 136
289 238 127 114 155 169 168 175 174 174 172 179 250 200 173 178 217 237 243 245 245 260 262 265 276 280 281 286 279 264 247 244 238 221 181 160 141 129 117 120 122 123 120
5 259 153 165 164 159 176 160 158 159 162 185 234 114 170 200 222 257 258 251 249 251 265 257 268 271 279 265 251 240 220 215 198 166 138 129 121 116 110 105 109 120 119
137 218 201 194 183 151 160 162 159 163 184 193 173 177 196 217 227 230 246 253 256 269 247 123 269 309 322 338 327 256 217 203 179 151 137 135 129 121 120 118 120 122 121
149 183 203 186 169 175 182 176 187 191 190 180 189 206 209 240 245 235 241 257 257 198 186 205 202 198 223 261 274 282 218 165 170 156 137 120 102 95 110 110 109 116 142
176 195 189 171 175 188 179 176 186 191 196 190 195 209 219 221 250 233 220 228 231 204 228 228 275 265 222 199 196 214 180 167 158 146 126 123 128 131 132 128 146 113 116
138 165 162 137 162 177 182 185 187 177 198 216 212 209 210 210 239 230 229 223 211 213 221 228 225 248 252 237 232 188 180 203 175 180 163 158 160 179 190 189 197 160 160